Volver al catálogo

METEOR M2

ActivoMeteoSSO
NORAD 40069·PAYLOAD·🇷🇺 Russia

Lanzado Jul 8, 2014 desde Baikonur Cosmodrome

Loading…

Próximos Pases (próximas 24 horas)

TLE

ActualizadoSource: Space-Track

Época: Sep 14, 2026, 14:39 UTC

1 40069U 14037A   26257.61065259  .00000186  00000-0  10413-3 0  9997
2 40069  98.5229 230.2282 0006497 128.4352 231.7410 14.21483812632021

Sigue METEOR M2 en tiempo real con AllMySat

Download on the App Store